�������l�o���
Date,Time,MP-1(��Sv/h),MP-2(��Sv/h),MP-3(��Sv/h),MP-4(��Sv/h),MP-5(��Sv/h),MP-6(��Sv/h),MP-7(��Sv/h),����,����(m/s),���J
2017/04/27,00:00,0.380,0.233,0.402,0.371,0.334,0.194,0.168,�k,5.8,�L
2017/04/27,00:10,0.382,0.232,0.400,0.367,0.332,0.194,0.168,�k,5.0,�L
2017/04/27,00:20,0.382,0.232,0.402,0.371,0.331,0.194,0.167,�k,5.9,�L
2017/04/27,00:30,0.381,0.232,0.400,0.368,0.333,0.193,0.167,�k�k��,6.2,�L
2017/04/27,00:40,0.382,0.232,0.402,0.371,0.332,0.194,0.168,�k�k��,5.0,�L
2017/04/27,00:50,0.380,0.233,0.401,0.368,0.335,0.194,0.169,�k,4.4,�L
2017/04/27,01:00,0.383,0.233,0.400,0.370,0.330,0.195,0.168,�k,6.8,�L
2017/04/27,01:10,0.381,0.234,0.401,0.370,0.334,0.195,0.169,�k,5.6,�L
2017/04/27,01:20,0.382,0.233,0.402,0.369,0.332,0.195,0.168,�k�k��,6.4,�L
2017/04/27,01:30,0.383,0.233,0.401,0.372,0.331,0.196,0.168,�k�k��,9.5,�L
2017/04/27,01:40,0.381,0.233,0.401,0.368,0.333,0.195,0.169,�k�k��,9.5,�L
2017/04/27,01:50,0.381,0.236,0.399,0.371,0.332,0.195,0.169,�k�k��,7.4,�L
2017/04/27,02:00,0.382,0.233,0.403,0.368,0.332,0.195,0.169,�k�k��,8.1,�L
2017/04/27,02:10,0.379,0.235,0.400,0.368,0.331,0.194,0.169,�k�k��,7.8,�L
2017/04/27,02:20,0.381,0.234,0.399,0.368,0.329,0.194,0.168,�k�k��,6.9,�L
2017/04/27,02:30,0.381,0.233,0.398,0.366,0.332,0.195,0.168,�k,6.4,�L
2017/04/27,02:40,0.379,0.232,0.397,0.367,0.330,0.195,0.168,�k,6.9,�L
2017/04/27,02:50,0.381,0.234,0.398,0.367,0.330,0.194,0.168,�k�k��,5.6,�L
2017/04/27,03:00,0.377,0.233,0.398,0.366,0.329,0.195,0.168,�k,7.0,�L
2017/04/27,03:10,0.380,0.232,0.395,0.365,0.328,0.195,0.167,�k�k��,8.6,�L
2017/04/27,03:20,0.379,0.233,0.396,0.364,0.329,0.195,0.167,�k�k��,8.4,�L
2017/04/27,03:30,0.377,0.233,0.397,0.364,0.330,0.194,0.167,�k�k��,7.6,�L
2017/04/27,03:40,0.378,0.232,0.395,0.365,0.328,0.195,0.166,�k,6.1,�L
2017/04/27,03:50,0.378,0.233,0.395,0.364,0.329,0.194,0.167,�k,6.8,�L
2017/04/27,04:00,0.375,0.233,0.395,0.361,0.331,0.194,0.167,�k,8.1,�L
2017/04/27,04:10,0.377,0.231,0.394,0.365,0.328,0.195,0.168,�k,9.8,�L
2017/04/27,04:20,0.376,0.232,0.393,0.362,0.329,0.194,0.168,�k,9.5,�L
2017/04/27,04:30,0.375,0.233,0.395,0.363,0.331,0.194,0.166,�k,7.0,�L
2017/04/27,04:40,0.377,0.232,0.394,0.364,0.328,0.195,0.166,�k�k��,7.5,�L
2017/04/27,04:50,0.376,0.232,0.393,0.361,0.330,0.194,0.167,�k�k��,7.6,�L
2017/04/27,05:00,0.377,0.233,0.395,0.363,0.330,0.194,0.167,�k,6.2,�L
2017/04/27,05:10,0.376,0.233,0.393,0.362,0.327,0.193,0.165,�k,6.7,�L
2017/04/27,05:20,0.376,0.231,0.392,0.361,0.328,0.192,0.165,�k,5.9,�L
2017/04/27,05:30,0.375,0.231,0.392,0.361,0.328,0.192,0.165,�k,5.7,��
2017/04/27,05:40,0.376,0.229,0.390,0.361,0.326,0.191,0.163,�k,5.6,��
2017/04/27,05:50,0.374,0.229,0.389,0.359,0.326,0.191,0.164,�k,4.9,��
2017/04/27,06:00,0.373,0.230,0.389,0.359,0.325,0.190,0.164,�k,4.0,��
2017/04/27,06:10,0.374,0.227,0.390,0.359,0.325,0.190,0.162,�k�k��,4.7,��
2017/04/27,06:20,0.372,0.226,0.388,0.358,0.327,0.189,0.161,�k,4.5,��
2017/04/27,06:30,0.373,0.227,0.391,0.358,0.325,0.189,0.162,�k,5.0,��
2017/04/27,06:40,0.374,0.227,0.389,0.356,0.324,0.189,0.163,�k,4.6,��
2017/04/27,06:50,0.372,0.226,0.389,0.357,0.325,0.188,0.160,�k�k��,5.4,��
2017/04/27,07:00,0.373,0.227,0.390,0.359,0.324,0.189,0.161,�k,5.8,��
2017/04/27,07:10,0.373,0.228,0.388,0.356,0.325,0.189,0.162,�k,7.0,��
2017/04/27,07:20,0.373,0.226,0.387,0.356,0.324,0.189,0.161,�k,6.9,��
2017/04/27,07:30,0.373,0.228,0.389,0.356,0.324,0.188,0.161,�k,5.9,��
2017/04/27,07:40,0.373,0.227,0.388,0.358,0.327,0.189,0.161,�k,3.9,��
2017/04/27,07:50,0.373,0.227,0.390,0.357,0.324,0.189,0.162,�k,2.8,��
2017/04/27,08:00,0.374,0.228,0.389,0.356,0.325,0.188,0.162,�k,2.2,��
2017/04/27,08:10,0.372,0.226,0.388,0.357,0.325,0.189,0.161,�k�k��,3.9,��
2017/04/27,08:20,0.373,0.226,0.390,0.356,0.325,0.188,0.161,�k,4.2,��
2017/04/27,08:30,0.371,0.227,0.387,0.356,0.327,0.187,0.160,�k�k��,3.6,��
2017/04/27,08:40,0.372,0.227,0.388,0.359,0.324,0.187,0.160,�k��,3.8,��
2017/04/27,08:50,0.374,0.227,0.389,0.356,0.326,0.188,0.161,�k�k��,3.6,��
2017/04/27,09:00,0.372,0.228,0.388,0.360,0.324,0.189,0.161,�k�k��,6.1,��
2017/04/27,09:10,0.373,0.226,0.388,0.356,0.326,0.188,0.161,�k�k��,7.5,��
2017/04/27,09:20,0.372,0.228,0.388,0.357,0.323,0.188,0.162,�k��,6.8,��
2017/04/27,09:30,0.374,0.225,0.389,0.355,0.325,0.188,0.160,�k��,6.4,��
2017/04/27,09:40,0.370,0.227,0.388,0.357,0.323,0.189,0.161,�k��,6.8,��
2017/04/27,09:50,0.373,0.226,0.390,0.356,0.326,0.188,0.162,�k��,5.9,��
2017/04/27,10:00,0.372,0.227,0.389,0.358,0.326,0.188,0.161,�k��,5.4,��
2017/04/27,10:10,0.375,0.227,0.388,0.357,0.325,0.186,0.161,�k��,7.8,��
2017/04/27,10:20,0.371,0.226,0.388,0.359,0.325,0.187,0.162,�k��,7.9,��
2017/04/27,10:30,0.374,0.228,0.387,0.356,0.326,0.186,0.160,�k��,8.7,��
2017/04/27,10:40,0.371,0.227,0.388,0.358,0.325,0.188,0.163,�k��,8.1,��
2017/04/27,10:50,0.375,0.228,0.388,0.356,0.327,0.189,0.162,�k��,9.1,��
2017/04/27,11:00,0.372,0.227,0.388,0.351,0.324,0.190,0.162,�k��,9.2,��
2017/04/27,11:10,0.377,0.228,0.389,0.358,0.327,0.188,0.162,�k��,9.2,��
2017/04/27,11:20,0.372,0.227,0.389,0.357,0.325,0.190,0.163,�k��,10.7,��
2017/04/27,11:30,0.374,0.227,0.389,0.360,0.327,0.190,0.161,�k��,10.0,��
2017/04/27,11:40,0.373,0.229,0.390,0.356,0.326,0.190,0.163,�k��,8.2,��
2017/04/27,11:50,0.377,0.228,0.390,0.361,0.327,0.189,0.163,�k��,5.6,��
2017/04/27,12:00,0.373,0.229,0.389,0.359,0.325,0.190,0.163,�k��,5.0,��
2017/04/27,12:10,0.376,0.227,0.392,0.357,0.326,0.190,0.163,�k��,5.3,��
2017/04/27,12:20,0.373,0.229,0.389,0.360,0.325,0.189,0.163,�k��,4.5,��
2017/04/27,12:30,0.375,0.228,0.391,0.359,0.328,0.190,0.162,�k��,3.8,��
2017/04/27,12:40,0.375,0.230,0.388,0.361,0.326,0.189,0.162,�k��,4.7,��
2017/04/27,12:50,0.376,0.228,0.392,0.358,0.328,0.190,0.163,�k��,3.7,��
2017/04/27,13:00,0.373,0.230,0.389,0.360,0.327,0.190,0.163,���k��,2.2,��
2017/04/27,13:10,0.376,0.228,0.392,0.361,0.326,0.190,0.163,��,2.8,��
2017/04/27,13:20,0.373,0.228,0.390,0.359,0.327,0.190,0.163,���k��,1.1,��
2017/04/27,13:30,0.376,0.228,0.390,0.361,0.324,0.189,0.164,���k��,1.5,��
2017/04/27,13:40,0.374,0.229,0.391,0.357,0.327,0.191,0.162,��,1.4,��
2017/04/27,13:50,0.377,0.228,0.387,0.361,0.326,0.189,0.163,��,1.9,��
2017/04/27,14:00,0.373,0.230,0.393,0.360,0.326,0.190,0.163,��,1.8,��
2017/04/27,14:10,0.378,0.228,0.390,0.364,0.328,0.190,0.162,��,0.9,��
2017/04/27,14:20,0.373,0.228,0.393,0.360,0.326,0.190,0.163,���쓌,2.1,��
2017/04/27,14:30,0.374,0.228,0.391,0.361,0.328,0.190,0.163,��쓌,1.7,��
2017/04/27,14:40,0.376,0.229,0.388,0.363,0.323,0.191,0.164,�쓌,1.9,��
2017/04/27,14:50,0.373,0.228,0.391,0.359,0.329,0.190,0.163,�쓌,2.2,��
2017/04/27,15:00,0.377,0.229,0.391,0.364,0.329,0.192,0.163,��쓌,2.1,��
2017/04/27,15:10,0.374,0.229,0.389,0.362,0.325,0.190,0.164,��,1.9,��
2017/04/27,15:20,0.377,0.229,0.393,0.365,0.328,0.190,0.164,��쓌,1.6,��
2017/04/27,15:30,0.374,0.228,0.392,0.362,0.327,0.191,0.163,��쓌,2.5,��
2017/04/27,15:40,0.378,0.230,0.393,0.363,0.331,0.191,0.163,��,1.6,��
2017/04/27,15:50,0.375,0.229,0.394,0.364,0.327,0.190,0.164,��쐼,2.4,��
2017/04/27,16:00,0.377,0.229,0.395,0.363,0.330,0.191,0.163,��,2.2,��
2017/04/27,16:10,0.375,0.230,0.395,0.363,0.328,0.190,0.164,��,3.2,��
2017/04/27,16:20,0.378,0.229,0.392,0.361,0.330,0.191,0.164,��,2.0,��
2017/04/27,16:30,0.377,0.229,0.395,0.365,0.327,0.191,0.163,��,2.1,��
2017/04/27,16:40,0.378,0.230,0.393,0.362,0.329,0.191,0.164,��,1.1,��
2017/04/27,16:50,0.376,0.230,0.394,0.363,0.326,0.190,0.164,-,CALM,��
2017/04/27,17:00,0.376,0.231,0.393,0.365,0.330,0.192,0.163,��,1.2,��
2017/04/27,17:10,0.378,0.230,0.393,0.361,0.329,0.191,0.164,-,CALM,��
2017/04/27,17:20,0.376,0.229,0.396,0.364,0.331,0.191,0.163,��쓌,0.6,��
2017/04/27,17:30,0.378,0.229,0.394,0.362,0.327,0.192,0.164,��,2.0,��
2017/04/27,17:40,0.376,0.229,0.393,0.362,0.330,0.191,0.164,��,3.0,��
2017/04/27,17:50,0.378,0.229,0.393,0.364,0.328,0.191,0.163,��쓌,1.9,��
2017/04/27,18:00,0.376,0.229,0.393,0.361,0.330,0.191,0.164,��쐼,0.9,��
2017/04/27,18:10,0.375,0.229,0.394,0.364,0.328,0.190,0.164,��쐼,2.6,��
2017/04/27,18:20,0.377,0.229,0.392,0.363,0.328,0.191,0.164,��,2.4,��
2017/04/27,18:30,0.377,0.231,0.396,0.363,0.331,0.191,0.165,��쐼,2.6,��
2017/04/27,18:40,0.378,0.229,0.393,0.364,0.329,0.191,0.165,��쐼,3.8,��
2017/04/27,18:50,0.377,0.229,0.392,0.363,0.329,0.191,0.165,��쐼,4.9,��
2017/04/27,19:00,0.376,0.230,0.395,0.362,0.330,0.191,0.163,��쐼,4.8,��
2017/04/27,19:10,0.377,0.230,0.396,0.365,0.329,0.191,0.164,�쐼,2.8,��
2017/04/27,19:20,0.377,0.229,0.394,0.364,0.329,0.192,0.164,��,2.5,��
2017/04/27,19:30,0.376,0.230,0.397,0.362,0.330,0.191,0.165,��,4.2,��
2017/04/27,19:40,0.379,0.230,0.394,0.365,0.328,0.192,0.164,��,5.2,��
2017/04/27,19:50,0.377,0.231,0.393,0.364,0.330,0.191,0.164,���쐼,2.7,��
2017/04/27,20:00,0.378,0.231,0.395,0.364,0.330,0.191,0.165,�k��,2.9,��
2017/04/27,20:10,0.379,0.230,0.396,0.363,0.327,0.191,0.165,�k�k��,2.3,��
2017/04/27,20:20,0.377,0.231,0.393,0.363,0.329,0.191,0.164,�k,1.9,��
2017/04/27,20:30,0.377,0.231,0.395,0.363,0.329,0.192,0.165,�k�k��,1.1,��
2017/04/27,20:40,0.378,0.230,0.395,0.364,0.328,0.191,0.164,�k�k��,2.8,��
2017/04/27,20:50,0.377,0.230,0.394,0.363,0.329,0.192,0.165,���k��,1.9,��
2017/04/27,21:00,0.376,0.231,0.395,0.363,0.329,0.191,0.165,�k,1.5,��
2017/04/27,21:10,0.378,0.230,0.396,0.364,0.326,0.192,0.164,�k�k��,1.7,��
2017/04/27,21:20,0.376,0.229,0.394,0.365,0.330,0.191,0.165,�k�k��,1.7,��
2017/04/27,21:30,0.378,0.232,0.395,0.363,0.329,0.192,0.164,��쐼,0.5,��
2017/04/27,21:40,0.378,0.231,0.395,0.365,0.328,0.191,0.164,��쓌,0.8,��
2017/04/27,21:50,0.376,0.231,0.395,0.364,0.329,0.191,0.165,��,3.0,��
2017/04/27,22:00,0.377,0.230,0.394,0.363,0.330,0.192,0.163,��,3.2,��
2017/04/27,22:10,0.381,0.231,0.397,0.364,0.329,0.191,0.165,��,4.2,��
2017/04/27,22:20,0.377,0.231,0.395,0.364,0.330,0.192,0.164,��,2.5,��
2017/04/27,22:30,0.377,0.231,0.394,0.363,0.328,0.192,0.164,��쐼,3.2,��
2017/04/27,22:40,0.377,0.230,0.394,0.363,0.329,0.191,0.165,��쓌,2.8,��
2017/04/27,22:50,0.377,0.231,0.395,0.364,0.330,0.190,0.164,�k,2.0,��
2017/04/27,23:00,0.376,0.231,0.393,0.363,0.329,0.190,0.165,��,2.2,��
2017/04/27,23:10,0.378,0.230,0.395,0.363,0.328,0.192,0.165,��쐼,2.1,��
2017/04/27,23:20,0.376,0.229,0.395,0.364,0.330,0.191,0.164,�쐼,1.3,��
2017/04/27,23:30,0.378,0.231,0.395,0.364,0.330,0.193,0.165,���k��,1.7,��
2017/04/27,23:40,0.378,0.229,0.395,0.364,0.329,0.192,0.164,�k��,1.3,��
2017/04/27,23:50,0.377,0.230,0.396,0.364,0.329,0.191,0.165,�k��,0.5,��
